| time (UTC) | temp C | wind direction | speed KPH | gust KPH | rain 1hr cm | rain 24hr cm | rain mn cm | humidity % | barometer mb |
| 20260507174016 | 13 | 182 | 8.0 | 12.9 | 0.00 | 0.00 | 0.00 | 60 | 1015.9 |
| 20260507172516 | 13 | 180 | 9.7 | 12.9 | 0.00 | 0.00 | 0.00 | 60 | 1016.0 |
| 20260507171016 | 13 | 144 | 6.4 | 11.3 | 0.00 | 0.00 | 0.00 | 60 | 1015.9 |
| 20260507165516 | 13 | 166 | 4.8 | 9.7 | 0.00 | 0.00 | 0.00 | 60 | 1015.9 |
| 20260507164017 | 13 | 179 | 11.3 | 12.9 | 0.00 | 0.00 | 0.00 | 59 | 1016.0 |
| 20260507162517 | 13 | 142 | 4.8 | 9.7 | 0.00 | 0.00 | 0.00 | 59 | 1015.9 |
| 20260507161017 | 13 | 139 | 4.8 | 6.4 | 0.00 | 0.00 | 0.00 | 62 | 1016.1 |
| 20260507155517 | 12 | 140 | 3.2 | 4.8 | 0.00 | 0.00 | 0.00 | 64 | 1016.1 |
| 20260507154017 | 12 | 164 | 3.2 | 4.8 | 0.00 | 0.00 | 0.00 | 65 | 1016.3 |
| 20260507152517 | 12 | 183 | 6.4 | 9.7 | 0.00 | 0.00 | 0.00 | 65 | 1016.5 |
| 20260507151017 | 12 | 172 | 6.4 | 11.3 | 0.00 | 0.00 | 0.00 | 66 | 1016.4 |
| 20260507145517 | 12 | 172 | 8.0 | 11.3 | 0.00 | 0.00 | 0.00 | 65 | 1016.7 |
| 20260507144017 | 12 | 176 | 6.4 | 6.4 | 0.00 | 0.00 | 0.00 | 65 | 1016.6 |
| 20260507142517 | 12 | 162 | 8.0 | 11.3 | 0.00 | 0.00 | 0.00 | 67 | 1016.7 |
| 20260507141017 | 12 | 174 | 4.8 | 6.4 | 0.00 | 0.00 | 0.00 | 66 | 1017.0 |
| 20260507135517 | 12 | 178 | 6.4 | 6.4 | 0.00 | 0.00 | 0.00 | 65 | 1016.9 |
| 20260507134017 | 12 | 192 | 9.7 | 12.9 | 0.00 | 0.00 | 0.00 | 64 | 1016.8 |
| 20260507132517 | 12 | 165 | 8.0 | 9.7 | 0.00 | 0.00 | 0.00 | 63 | 1016.9 |
| 20260507131017 | 12 | 141 | 8.0 | 11.3 | 0.00 | 0.00 | 0.00 | 64 | 1016.8 |
| 20260507125517 | 12 | 132 | 9.7 | 11.3 | 0.00 | 0.00 | 0.00 | 65 | 1016.8 |
| 20260507124017 | 12 | 184 | 4.8 | 9.7 | 0.00 | 0.00 | 0.00 | 67 | 1016.8 |
| 20260507122517 | 12 | 166 | 8.0 | 12.9 | 0.00 | 0.00 | 0.00 | 68 | 1017.2 |
| 20260507121017 | 12 | 174 | 6.4 | 11.3 | 0.00 | 0.00 | 0.00 | 70 | 1017.3 |
| 20260507115517 | 12 | 182 | 1.6 | 1.6 | 0.00 | 0.00 | 0.00 | 71 | 1017.2 |
| 20260507114017 | 11 | 124 | 4.8 | 9.7 | 0.00 | 0.00 | 0.00 | 74 | 1017.3 |
| 20260507112517 | 10 | 124 | 6.4 | 12.9 | 0.00 | 0.00 | 0.00 | 77 | 1017.6 |
| 20260507111017 | 10 | 106 | 8.0 | 12.9 | 0.00 | 0.00 | 0.00 | 78 | 1017.4 |
| 20260507105517 | 9 | 172 | 8.0 | 11.3 | 0.00 | 0.00 | 0.00 | 79 | 1017.7 |
| 20260507104017 | 9 | 164 | 6.4 | 9.7 | 0.00 | 0.00 | 0.00 | 79 | 1017.6 |
| 20260507102517 | 8 | 172 | 6.4 | 11.3 | 0.00 | 0.00 | 0.00 | 80 | 1017.6 |
| 20260507101017 | 8 | 171 | 6.4 | 6.4 | 0.00 | 0.00 | 0.00 | 80 | 1017.8 |
| 20260507095517 | 8 | 184 | 6.4 | 9.7 | 0.00 | 0.00 | 0.00 | 79 | 1017.7 |
| 20260507094017 | 8 | 185 | 9.7 | 12.9 | 0.00 | 0.00 | 0.00 | 80 | 1017.7 |
| 20260507092517 | 8 | 187 | 9.7 | 12.9 | 0.00 | 0.00 | 0.00 | 80 | 1017.8 |
| 20260507091017 | 8 | 159 | 9.7 | 11.3 | 0.00 | 0.00 | 0.00 | 82 | 1017.6 |
| 20260507085517 | 7 | 173 | 8.0 | 11.3 | 0.00 | 0.00 | 0.00 | 82 | 1017.7 |
| 20260507084017 | 7 | 169 | 8.0 | 11.3 | 0.00 | 0.00 | 0.00 | 83 | 1017.6 |
| 20260507082517 | 7 | 169 | 8.0 | 9.7 | 0.00 | 0.00 | 0.00 | 83 | 1017.7 |
| 20260507081017 | 7 | 158 | 3.2 | 6.4 | 0.00 | 0.00 | 0.00 | 83 | 1017.6 |
| 20260507075517 | 7 | 171 | 8.0 | 12.9 | 0.00 | 0.00 | 0.00 | 82 | 1017.6 |
| 20260507074017 | 7 | 180 | 4.8 | 6.4 | 0.00 | 0.00 | 0.00 | 81 | 1017.5 |
| 20260507072517 | 7 | 179 | 4.8 | 6.4 | 0.00 | 0.00 | 0.00 | 82 | 1017.6 |
| 20260507071017 | 7 | 171 | 4.8 | 4.8 | 0.00 | 0.00 | 0.00 | 83 | 1017.7 |
| 20260507065517 | 7 | 201 | 4.8 | 6.4 | 0.00 | 0.00 | 0.00 | 83 | 1017.3 |
| 20260507064017 | 7 | 181 | 4.8 | 6.4 | 0.00 | 0.00 | 0.00 | 84 | 1017.3 |
| 20260507062517 | 7 | 165 | 3.2 | 3.2 | 0.00 | 0.00 | 0.00 | 84 | 1017.3 |
| 20260507061017 | 6 | 163 | 4.8 | 4.8 | 0.00 | 0.00 | 0.00 | 86 | 1017.4 |
| 20260507055517 | 5 | 162 | 0.0 | 1.6 | 0.00 | 0.00 | 0.00 | 87 | 1017.3 |
| 20260507054017 | 5 | 0 | 0.0 | 0.0 | 0.00 | 0.00 | 0.00 | 87 | 1017.3 |
| 20260507052517 | 5 | 176 | 3.2 | 4.8 | 0.00 | 0.00 | 0.00 | 87 | 1017.3 |
| 20260507051017 | 5 | 183 | 3.2 | 3.2 | 0.00 | 0.00 | 0.00 | 86 | 1017.3 |
| 20260507045517 | 5 | 182 | 3.2 | 6.4 | 0.00 | 0.00 | 0.00 | 86 | 1017.2 |
| 20260507044017 | 5 | 178 | 3.2 | 3.2 | 0.00 | 0.00 | 0.00 | 87 | 1017.3 |
| 20260507042517 | 5 | 174 | 1.6 | 3.2 | 0.00 | 0.00 | 0.00 | 87 | 1017.1 |
| 20260507041017 | 5 | 159 | 3.2 | 4.8 | 0.00 | 0.00 | 0.00 | 87 | 1016.9 |
| 20260507035517 | 5 | 176 | 1.6 | 3.2 | 0.00 | 0.00 | 0.00 | 86 | 1017.1 |
| 20260507034017 | 5 | 177 | 3.2 | 4.8 | 0.00 | 0.00 | 0.00 | 86 | 1017.1 |
| 20260507032517 | 5 | 172 | 1.6 | 1.6 | 0.00 | 0.00 | 0.00 | 85 | 1017.2 |
| 20260507031017 | 5 | 197 | 4.8 | 4.8 | 0.00 | 0.00 | 0.00 | 85 | 1017.3 |
| 20260507025517 | 4 | 175 | 3.2 | 4.8 | 0.00 | 0.00 | 0.00 | 84 | 1017.2 |
| 20260507024017 | 4 | 0 | 0.0 | 0.0 | 0.00 | 0.00 | 0.00 | 86 | 1017.3 |
| 20260507022517 | 4 | 0 | 0.0 | 0.0 | 0.00 | 0.00 | 0.00 | 86 | 1017.5 |
| 20260507021017 | 4 | 201 | 4.8 | 6.4 | 0.00 | 0.00 | 0.00 | 86 | 1017.1 |
| 20260507015517 | 3 | 177 | 4.8 | 4.8 | 0.00 | 0.00 | 0.00 | 87 | 1017.4 |
| 20260507014017 | 3 | 174 | 3.2 | 4.8 | 0.00 | 0.00 | 0.00 | 87 | 1017.1 |
| 20260507012517 | 3 | 174 | 3.2 | 4.8 | 0.00 | 0.00 | 0.00 | 87 | 1017.3 |
| 20260507011017 | 3 | 186 | 1.6 | 3.2 | 0.00 | 0.00 | 0.00 | 88 | 1017.4 |
| 20260507005517 | 3 | 173 | 0.0 | 1.6 | 0.00 | 0.00 | 0.00 | 88 | 1017.7 |
| 20260507004017 | 3 | 183 | 1.6 | 3.2 | 0.00 | 0.00 | 0.00 | 88 | 1017.4 |
| 20260507002517 | 3 | 197 | 1.6 | 3.2 | 0.00 | 0.00 | 0.00 | 88 | 1017.4 |
| 20260507001017 | 3 | 170 | 1.6 | 3.2 | 0.00 | 0.00 | 0.00 | 87 | 1017.7 |
| 20260506235517 | 3 | 199 | 1.6 | 3.2 | 0.00 | 0.00 | 0.00 | 87 | 1017.8 |
| 20260506234017 | 4 | 0 | 0.0 | 0.0 | 0.00 | 0.00 | 0.00 | 86 | 1017.9 |
| 20260506232517 | 4 | 0 | 0.0 | 0.0 | 0.00 | 0.00 | 0.00 | 86 | 1017.7 |
| 20260506231017 | 4 | 0 | 0.0 | 0.0 | 0.00 | 0.00 | 0.00 | 85 | 1017.7 |
| 20260506225517 | 5 | 159 | 1.6 | 1.6 | 0.00 | 0.00 | 0.00 | 85 | 1018.0 |
| 20260506224017 | 5 | 154 | 0.0 | 1.6 | 0.00 | 0.00 | 0.00 | 85 | 1017.8 |
| 20260506222517 | 5 | 183 | 3.2 | 4.8 | 0.00 | 0.00 | 0.00 | 85 | 1017.6 |
| 20260506221017 | 5 | 166 | 3.2 | 4.8 | 0.00 | 0.00 | 0.00 | 84 | 1017.8 |
| 20260506215517 | 6 | 171 | 4.8 | 6.4 | 0.00 | 0.00 | 0.00 | 82 | 1017.5 |
| 20260506214017 | 6 | 147 | 3.2 | 4.8 | 0.00 | 0.00 | 0.00 | 82 | 1017.8 |
| 20260506212517 | 6 | 132 | 4.8 | 6.4 | 0.00 | 0.00 | 0.00 | 82 | 1017.6 |
| 20260506211017 | 6 | 138 | 1.6 | 3.2 | 0.00 | 0.00 | 0.00 | 81 | 1017.7 |
| 20260506205517 | 6 | 148 | 0.0 | 1.6 | 0.00 | 0.00 | 0.00 | 81 | 1017.5 |
| 20260506204017 | 6 | 148 | 0.0 | 1.6 | 0.00 | 0.00 | 0.00 | 80 | 1017.6 |
| 20260506202517 | 6 | 0 | 0.0 | 0.0 | 0.00 | 0.00 | 0.00 | 79 | 1017.3 |
| 20260506201017 | 7 | 0 | 0.0 | 0.0 | 0.00 | 0.00 | 0.00 | 78 | 1017.2 |
| 20260506195517 | 7 | 0 | 0.0 | 0.0 | 0.00 | 0.00 | 0.00 | 78 | 1017.0 |
| 20260506194017 | 7 | 0 | 0.0 | 0.0 | 0.00 | 0.00 | 0.00 | 78 | 1016.9 |
| 20260506192517 | 7 | 108 | 1.6 | 4.8 | 0.00 | 0.00 | 0.00 | 77 | 1017.0 |
| 20260506191017 | 8 | 129 | 3.2 | 4.8 | 0.00 | 0.00 | 0.00 | 75 | 1016.8 |
| 20260506185517 | 8 | 133 | 8.0 | 12.9 | 0.00 | 0.00 | 0.00 | 74 | 1016.8 |
| 20260506184017 | 8 | 126 | 9.7 | 12.9 | 0.00 | 0.00 | 0.00 | 74 | 1016.7 |
| 20260506182517 | 8 | 133 | 9.7 | 17.7 | 0.00 | 0.00 | 0.00 | 73 | 1016.6 |
| 20260506181018 | 8 | 120 | 1.6 | 4.8 | 0.00 | 0.00 | 0.00 | 73 | 1016.7 |
| 20260506175517 | 8 | 158 | 1.6 | 4.8 | 0.00 | 0.00 | 0.00 | 74 | 1016.7 |